George, South Africa

2:05 AM SAST on July 23, 2017 (GMT +0200)
George

Weather History for FAGG - September, 2011

Change the Weather History Date:

Saturday, September 24, 2011

  Actual Average Record
Temperature  
Mean Temperature 56 °F -  
Max Temperature 67 °F 66 °F 78 °F (2015)
Min Temperature 45 °F 49 °F 43 °F (2016)
Degree Days  
Heating Degree Days 9    
Growing Degree Days 6 (Base 50)    
Moisture  
Dew Point 50 °F    
Average Humidity 78    
Maximum Humidity 94    
Minimum Humidity 37    
Precipitation  
Precipitation 0.00 in - - ()
Sea Level Pressure  
Sea Level Pressure 30.31 in    
Wind  
Wind Speed 6 mph ()    
Max Wind Speed 23 mph    
Max Gust Speed -    
Visibility 8.7 miles    
Events      
Averages and records for this station are not official NWS values.
T = Trace of Precipitation, MM = Missing Value Source: Averaged Metar Reports

Daily Weather History Graph

Daily Weather History Graph

Search for Another Location

Airport or City:

Trip Planner

Search our weather history database for the weather conditions in past years. The results will help you decide how hot, cold, wet, or windy it might be!

Date:

Astronomy

Sep. 24, 2011 Rise Set
Actual Time 6:17 AM SAST 6:27 PM SAST
Civil Twilight 5:52 AM SAST 6:52 PM SAST
Nautical Twilight 5:23 AM SAST 7:22 PM SAST
Astronomical Twilight 4:54 AM SAST 7:51 PM SAST
Moon 3:56 AM SAST (9/24) 3:14 PM SAST (9/24)
Length of Visible Light 13h 00m
Length of Day
12h 10m
Waning Crescent, 13% of the Moon is Illuminated
Sep 24
Waning Crescent
Sep 27
New
Oct 4
First Quarter
Oct 12
Full
Oct 20
Last Quarter

Hourly Weather History & Observations

Time (SAST) Temp. Windchill Dew Point Humidity Pressure Visibility Wind Dir Wind Speed Gust Speed Precip Events Conditions
12:00 AM 50.0 °F - 48.2 °F 94% 30.42 in 6.2 mi NW 2.3 mph - N/A   Partly Cloudy
1:00 AM 48.2 °F - 46.4 °F 93% 30.42 in 6.2 mi North 3.5 mph - N/A   Partly Cloudy
2:00 AM 48 °F - 46 °F 91% 30.44 in 12 mi 1.2 mph - -  
2:00 AM 48.2 °F - 46.4 °F 93% 30.42 in - Calm Calm - N/A   Clear
3:00 AM 46.4 °F 44.3 °F 44.6 °F 93% 30.39 in - NNE 4.6 mph - N/A   Clear
4:00 AM 48.2 °F - 44.6 °F 87% 30.36 in - ENE 3.5 mph - N/A   Clear
5:00 AM 48 °F - 46 °F 91% 30.38 in 12 mi East 6.9 mph - -   Scattered Clouds
5:00 AM 48.2 °F - 46.4 °F 93% 30.36 in 6.2 mi East 6.9 mph - N/A   Partly Cloudy
6:00 AM 50.0 °F - 48.2 °F 94% 30.36 in - ESE 6.9 mph - N/A   Clear
7:00 AM 50.0 °F - 48.2 °F 94% 30.36 in - Variable 1.2 mph - N/A   Clear
8:00 AM 54 °F - 49 °F 79% 30.39 in 12 mi ENE 5.8 mph - -   Clear
8:00 AM 53.6 °F - 50.0 °F 88% 30.36 in - ENE 5.8 mph - N/A   Clear
9:00 AM 60.8 °F - 50.0 °F 68% 30.36 in - Variable 1.2 mph - N/A   Clear
10:00 AM 64.4 °F - 46.4 °F 52% 30.36 in - ESE 6.9 mph - N/A   Clear
11:00 AM 65 °F - 47 °F 41% 30.35 in 12 mi SSE 10.4 mph - -   Clear
11:00 AM 64.4 °F - 46.4 °F 52% 30.36 in - SSE 10.4 mph - N/A   Clear
12:00 PM 64.4 °F - 48.2 °F 56% 30.33 in - East 10.4 mph - N/A   Clear
1:00 PM 66.2 °F - 50.0 °F 56% 30.30 in - ESE 11.5 mph - N/A   Clear
2:00 PM 67 °F - 47 °F 37% 30.27 in 12 mi East 13.8 mph - -   Clear
2:00 PM 66.2 °F - 48.2 °F 52% 30.27 in - East 13.8 mph - N/A   Clear
3:00 PM 66.2 °F - 53.6 °F 64% 30.24 in - ESE 15.0 mph - N/A   Clear
4:00 PM 64.4 °F - 55.4 °F 73% 30.21 in - ESE 23.0 mph - N/A   Clear
5:00 PM 63 °F - 55 °F 68% 30.23 in 12 mi ESE 18.4 mph - -   Clear
5:00 PM 62.6 °F - 55.4 °F 77% 30.21 in - ESE 19.6 mph - N/A   Clear
6:00 PM 60.8 °F - 55.4 °F 82% 30.21 in - ESE 16.1 mph - N/A   Clear
7:00 PM 59.0 °F - 55.4 °F 88% 30.21 in - East 8.1 mph - N/A   Clear
8:00 PM 57.2 °F - 55.4 °F 94% 30.21 in 5.0 mi ENE 4.6 mph - N/A   Haze
9:00 PM 55.4 °F - 53.6 °F 94% 30.21 in 3.7 mi NNE 2.3 mph - N/A   Unknown
10:00 PM 53.6 °F - 51.8 °F 94% 30.18 in 5.0 mi NW 3.5 mph - N/A   Unknown
11:00 PM 51.8 °F - 50.0 °F 94% 30.15 in - WNW 5.8 mph - N/A   Clear